| time (UTC) | temp F | wind direction | speed MPH | gust MPH | rain 1hr in | rain 24hr in | rain mn in | humidity % | barometer mb |
| 20260503174602 | 59 | 247 | 2.0 | 11.0 | 0.00 | 0.00 | 0.00 | 50 | 1015.6 |
| 20260503173100 | 61 | 197 | 4.0 | 12.0 | 0.00 | 0.00 | 0.00 | 48 | 1015.9 |
| 20260503171612 | 61 | 270 | 2.0 | 12.0 | 0.00 | 0.00 | 0.00 | 47 | 1015.8 |
| 20260503170105 | 60 | 280 | 3.0 | 11.0 | 0.00 | 0.00 | 0.00 | 50 | 1016.3 |
| 20260503081541 | 40 | 162 | 0.0 | 2.0 | 0.00 | 0.00 | 0.00 | 72 | 1017.6 |
| 20260503071552 | 40 | 136 | 0.0 | 0.0 | 0.00 | 0.00 | 0.00 | 72 | 1017.8 |
| 20260503054524 | 37 | 284 | 0.0 | 0.0 | 0.00 | 0.00 | 0.00 | 78 | 1018.4 |
| 20260503053018 | 37 | 284 | 0.0 | 0.0 | 0.00 | 0.00 | 0.00 | 79 | 1018.5 |
| 20260503051518 | 37 | 284 | 0.0 | 0.0 | 0.00 | 0.00 | 0.00 | 80 | 1018.6 |
| 20260503050017 | 36 | 284 | 0.0 | 0.0 | 0.00 | 0.00 | 0.00 | 83 | 1018.5 |
| 20260503044531 | 36 | 286 | 0.0 | 0.0 | 0.00 | 0.00 | 0.00 | 83 | 1018.7 |
| 20260503043021 | 36 | 284 | 0.0 | 0.0 | 0.00 | 0.00 | 0.00 | 82 | 1018.6 |
| 20260503041510 | 37 | 284 | 0.0 | 0.0 | 0.00 | 0.00 | 0.00 | 83 | 1018.6 |
| 20260503040007 | 37 | 284 | 0.0 | 0.0 | 0.00 | 0.00 | 0.00 | 81 | 1018.6 |
| 20260503034507 | 38 | 284 | 0.0 | 0.0 | 0.00 | 0.00 | 0.00 | 78 | 1018.6 |
| 20260503033006 | 39 | 284 | 0.0 | 0.0 | 0.00 | 0.00 | 0.00 | 79 | 1018.6 |
| 20260503031506 | 39 | 284 | 0.0 | 0.0 | 0.00 | 0.00 | 0.00 | 77 | 1018.6 |
| 20260503030006 | 40 | 284 | 0.0 | 0.0 | 0.00 | 0.00 | 0.00 | 74 | 1018.7 |
| 20260503024504 | 40 | 284 | 0.0 | 0.0 | 0.00 | 0.00 | 0.00 | 72 | 1018.7 |
| 20260503023004 | 40 | 285 | 0.0 | 0.0 | 0.00 | 0.00 | 0.00 | 70 | 1018.7 |
| 20260503021503 | 41 | 284 | 0.0 | 0.0 | 0.00 | 0.00 | 0.00 | 68 | 1018.7 |
| 20260503020003 | 41 | 284 | 0.0 | 0.0 | 0.00 | 0.00 | 0.00 | 64 | 1018.6 |
| 20260503014502 | 42 | 284 | 0.0 | 0.0 | 0.00 | 0.00 | 0.00 | 64 | 1018.4 |
| 20260503013002 | 43 | 284 | 0.0 | 0.0 | 0.00 | 0.00 | 0.00 | 61 | 1018.3 |
| 20260503011502 | 44 | 284 | 0.0 | 0.0 | 0.00 | 0.00 | 0.00 | 57 | 1018.3 |
| 20260503010001 | 45 | 284 | 0.0 | 0.0 | 0.00 | 0.00 | 0.00 | 53 | 1018.4 |
| 20260503004600 | 47 | 284 | 0.0 | 0.0 | 0.00 | 0.00 | 0.00 | 49 | 1018.4 |
| 20260503003100 | 49 | 284 | 0.0 | 0.0 | 0.00 | 0.00 | 0.00 | 47 | 1018.3 |
| 20260503001559 | 50 | 284 | 0.0 | 3.0 | 0.00 | 0.00 | 0.00 | 45 | 1018.2 |
| 20260503000110 | 50 | 271 | 0.0 | 0.0 | 0.00 | 0.00 | 0.00 | 45 | 1018.1 |
| 20260502234604 | 50 | 61 | 0.0 | 3.0 | 0.00 | 0.00 | 0.00 | 44 | 1018.1 |
| 20260502233058 | 51 | 228 | 0.0 | 5.0 | 0.00 | 0.00 | 0.00 | 42 | 1018.1 |
| 20260502231558 | 51 | 303 | 0.0 | 3.0 | 0.00 | 0.00 | 0.00 | 42 | 1018.1 |
| 20260502230056 | 51 | 284 | 0.0 | 4.0 | 0.00 | 0.00 | 0.00 | 41 | 1018.1 |
| 20260502224554 | 52 | 151 | 0.0 | 4.0 | 0.00 | 0.00 | 0.00 | 39 | 1018.1 |
| 20260502223054 | 53 | 280 | 0.0 | 9.0 | 0.00 | 0.00 | 0.00 | 38 | 1018.1 |
| 20260502221608 | 54 | 231 | 1.0 | 12.0 | 0.00 | 0.00 | 0.00 | 39 | 1018.2 |
| 20260502220101 | 53 | 271 | 1.0 | 7.0 | 0.00 | 0.00 | 0.00 | 39 | 1018.2 |
| 20260502214552 | 52 | 262 | 1.0 | 7.0 | 0.00 | 0.00 | 0.00 | 42 | 1018.2 |
| 20260502213051 | 52 | 358 | 0.0 | 6.0 | 0.00 | 0.00 | 0.00 | 42 | 1018.1 |
| 20260502211551 | 53 | 34 | 2.0 | 9.0 | 0.00 | 0.00 | 0.00 | 41 | 1018.2 |
| 20260502210104 | 52 | 222 | 0.0 | 3.0 | 0.00 | 0.00 | 0.00 | 44 | 1018.2 |
| 20260502204548 | 51 | 283 | 0.0 | 7.0 | 0.00 | 0.00 | 0.00 | 43 | 1018.2 |
| 20260502203044 | 51 | 271 | 0.0 | 3.0 | 0.00 | 0.00 | 0.00 | 46 | 1018.4 |
| 20260502201547 | 51 | 266 | 1.0 | 9.0 | 0.00 | 0.00 | 0.00 | 43 | 1018.5 |
| 20260502200054 | 51 | 276 | 1.0 | 8.0 | 0.00 | 0.00 | 0.00 | 44 | 1018.7 |
| 20260502194542 | 50 | 277 | 1.0 | 4.0 | 0.00 | 0.00 | 0.00 | 44 | 1018.9 |
| 20260502193043 | 52 | 345 | 0.0 | 8.0 | 0.00 | 0.00 | 0.00 | 47 | 1019.0 |
| 20260502191544 | 51 | 261 | 2.0 | 8.0 | 0.00 | 0.00 | 0.00 | 46 | 1019.1 |
| 20260502190046 | 50 | 257 | 0.0 | 7.0 | 0.00 | 0.00 | 0.00 | 47 | 1019.2 |
| 20260502184539 | 50 | 293 | 0.0 | 12.0 | 0.00 | 0.00 | 0.00 | 46 | 1019.4 |
| 20260502183037 | 50 | 288 | 1.0 | 6.0 | 0.00 | 0.00 | 0.00 | 45 | 1019.4 |
| 20260502181538 | 51 | 267 | 0.0 | 7.0 | 0.00 | 0.00 | 0.00 | 49 | 1019.5 |